Regional Weather Roundup
Issued by NWS Burlington, VT

Current Version | Previous Version | Text Only | Print | Product List | Glossary On
Versions: 1 2 3 4 5 6 7 8 9 10 11 12 13 14 15 16 17 18 19 20 21 22 23 24 25 26 27 28 29 30 31 32 33 34 35 36 37 38 39 40 41 42 43 44 45 46 47 48 49 50
000 ASUS41 KBTV 261010 RWRBTV VERMONT REGIONAL WEATHER ROUNDUP NATIONAL WEATHER SERVICE BURLINGTON VT 500 AM EST WED NOV 26 2014 NOTE: "FAIR" INDICATES FEW OR NO CLOUDS BELOW 12,000 FEET WITH NO SIGNIFICANT WEATHER AND/OR OBSTRUCTIONS TO VISIBILITY. * THESE REPORTS ARE NOT UNDER NWS QUALITY CONTROL AND/OR DO NOT REPORT WEATHER SUCH AS PRECIPITATION AND FOG. VTZ001>019-261100- _____VERMONT_____ CITY SKY/WX TMP DP RH WIND PRES REMARKS BURLINGTON CLOUDY 37 21 52 NW6 30.22S MONTPELIER CLOUDY 33 21 61 CALM 30.21S ST. JOHNSBURY* N/A 37 21 52 MISG 30.18S LYNDONVILLE* FAIR 33 20 59 SW3 30.19R MIDDLEBURY* PTSUNNY 37 24 61 N3 30.19S RUTLAND* CLOUDY 36 25 64 N3 30.17S SPRINGFIELD CLOUDY 39 26 59 N3 30.19R HIGHGATE* CLOUDY 35 23 62 W5 30.21S NEWPORT* CLOUDY 32 20 61 W8 30.20R BENNINGTON CLOUDY 35 28 75 CALM 30.17F _____LAKE CHAMPLAIN_____ CITY SKY/WX TMP DP RH WIND PRES REMARKS COLCHESTER RF* N/A 37 25 60 NW7 N/A DIAMOND ISL* N/A 39 25 56 NW9 N/A $$ NYZ007-026>031-035-052-083-261100- _____NORTHERN NEW YORK_____ CITY SKY/WX TMP DP RH WIND PRES REMARKS PLATTSBURGH CLOUDY 35 23 61 CALM 30.22S SARANAC LAKE CLOUDY 29 22 75 VRB7 30.14R MASSENA CLOUDY 33 21 61 NW8 30.25R OGDENSBURG* CLOUDY 34 27 75 NW3 30.23R POTSDAM* CLOUDY 32 28 86 W5 30.23R WATERTOWN CLOUDY 35 24 64 N3 30.23R FT DRUM CLOUDY 31 24 77 NW2 30.21R ALBANY CLOUDY 38 26 62 W8 30.21R GLENS FALLS CLOUDY 37 24 59 N9 30.19S $$ NHZ002-005-011-261100- _____NEW HAMPSHIRE_____ CITY SKY/WX TMP DP RH WIND PRES REMARKS LEBANON CLOUDY 36 29 75 CALM 30.18S KEENE CLOUDY 34 30 86 CALM 30.18S MT WASHINGTON PTSUNNY 14 9 79 W44 N/A WCI -10 PLYMOUTH FAIR 39 30 70 CALM 30.17S WHITEFIELD CLOUDY 35 21 56 VRB3 30.18R $$ _____REGIONAL QUEBEC LOCATIONS_____ CITY SKY/WX TMP DP RH WIND PRES REMARKS MONTREAL PTSUNNY 32 18 55 W10 30.22R QUEBEC CITY PTSUNNY 32 23 69 SW10 30.13R SHERBROOKE CLOUDY 34 25 69 W9 30.17R _____REGIONAL ONTARIO LOCATIONS_____ CITY SKY/WX TMP DP RH WIND PRES REMARKS OTTAWA MOSUNNY 27 18 69 NW8 30.23R ______KEY______ VSB - VISIBILITY IN MILES WCI - WIND CHILL INDEX HX - HEAT INDEX $$ NNNN

USA.gov is the U.S. government's official web portal to all federal, state and local government web resources and services.